GW0760 Weather Reports


time (UTC)temp
C
wind
direction
speed
KPH
gust
KPH
rain 1hr
cm
rain 24hr
cm
rain mn
cm
humidity
%
barometer
mb
20260504202503 20 233 4.8 20.9 0.00 0.00 0.00 36 1005.0
20260504202003 20 233 4.8 20.9 0.00 0.00 0.00 34 1005.2
20260504201503 20 245 4.8 14.5 0.00 0.00 0.00 34 1005.0
20260504201004 21 220 4.8 14.5 0.00 0.00 0.00 34 1005.0
20260504200503 21 206 3.2 14.5 0.00 0.00 0.00 33 1005.1
20260504200003 21 216 4.8 24.1 0.00 0.00 0.00 34 1005.2
20260504195504 22 224 6.4 24.1 0.00 0.00 0.00 32 1004.9
20260504195025 22 223 6.4 24.1 0.00 0.00 0.00 34 1005.0
20260504194503 21 226 3.2 22.5 0.00 0.00 0.00 36 1005.2
20260504194004 21 251 3.2 20.9 0.00 0.00 0.00 35 1005.2
20260504193504 21 227 4.8 20.9 0.00 0.00 0.00 33 1005.0
20260504193003 22 210 4.8 14.5 0.00 0.00 0.00 32 1005.0
20260504192503 22 213 6.4 20.9 0.00 0.00 0.00 35 1005.1
20260504192025 22 211 6.4 20.9 0.00 0.00 0.00 32 1005.1
20260504191503 22 205 4.8 20.9 0.00 0.00 0.00 32 1005.1
20260504191003 22 233 6.4 17.7 0.00 0.00 0.00 32 1005.1
20260504190525 22 225 6.4 20.9 0.00 0.00 0.00 33 1005.1
20260504190004 21 196 6.4 20.9 0.00 0.00 0.00 34 1005.2
20260504185503 21 211 4.8 27.4 0.00 0.00 0.00 34 1005.0
20260504185003 21 215 4.8 27.4 0.00 0.00 0.00 34 1005.4
20260504184504 20 209 4.8 14.5 0.00 0.00 0.00 39 1005.3
20260504184003 20 208 4.8 11.3 0.00 0.00 0.00 36 1005.2
20260504183503 20 202 3.2 12.9 0.00 0.00 0.00 34 1005.6
20260504183004 20 229 4.8 14.5 0.00 0.00 0.00 34 1005.4
20260504182503 20 245 4.8 14.5 0.00 0.00 0.00 34 1005.6
20260504182004 21 231 3.2 12.9 0.00 0.00 0.00 35 1005.4
20260504181503 21 244 3.2 9.7 0.00 0.00 0.00 33 1005.7
20260504181003 21 257 4.8 22.5 0.00 0.00 0.00 36 1005.4
20260504180504 21 221 6.4 22.5 0.00 0.00 0.00 33 1005.6
20260504180025 21 208 6.4 16.1 0.00 0.00 0.00 33 1005.8
20260504175503 21 206 6.4 16.1 0.00 0.00 0.00 32 1005.5
20260504175003 21 202 6.4 16.1 0.00 0.00 0.00 34 1005.4
20260504174504 20 238 6.4 22.5 0.00 0.00 0.00 33 1005.3
20260504174025 21 241 6.4 25.7 0.00 0.00 0.00 33 1005.7
20260504173503 21 228 4.8 25.7 0.00 0.00 0.00 32 1005.5
20260504173003 21 302 4.8 17.7 0.00 0.00 0.00 36 1005.4
20260504172503 21 240 4.8 17.7 0.00 0.00 0.00 33 1005.8
20260504172004 20 206 6.4 24.1 0.00 0.00 0.00 33 1005.7
20260504171503 20 213 4.8 24.1 0.00 0.00 0.00 33 1005.8
20260504171024 20 239 4.8 17.7 0.00 0.00 0.00 35 1005.6
20260504170504 20 245 4.8 17.7 0.00 0.00 0.00 35 1005.4
20260504151003 17 232 6.4 20.9 0.00 0.00 0.00 35 1006.9
20260504150503 18 236 4.8 20.9 0.00 0.00 0.00 37 1006.7
20260504141004 16 203 4.8 20.9 0.00 0.00 0.00 43 1007.7
20260504140504 16 214 4.8 20.9 0.00 0.00 0.00 41 1007.7
20260504130503 14 212 3.2 17.7 0.00 0.00 0.00 46 1007.9
20260504110504 5 193 1.6 1.6 0.00 0.03 0.00 82 1008.8
20260504100503 5 183 1.6 4.8 0.00 0.03 0.00 80 1008.5
20260504081504 5 174 1.6 3.2 0.00 0.03 0.00 78 1008.5
20260504081004 5 174 0.0 1.6 0.00 0.03 0.00 76 1008.6
20260504050504 1 239 0.0 1.6 0.00 0.03 0.00 90 1008.5
20260504050025 1 239 0.0 1.6 0.00 0.03 0.00 91 1009.0
20260504045525 1 239 1.6 1.6 0.00 0.03 0.00 91 1008.5
20260504045004 1 239 1.6 3.2 0.00 0.03 0.00 90 1008.7
20260504044504 0 239 1.6 3.2 0.00 0.03 0.00 90 1008.8
20260504044004 0 239 0.0 1.6 0.00 0.03 0.00 89 1008.7
20260504043504 0 239 0.0 1.6 0.00 0.03 0.00 89 1008.7
20260504043003 0 239 0.0 1.6 0.00 0.03 0.00 89 1008.5
20260504042504 0 0 0.0 0.0 0.00 0.03 0.00 89 1008.5
20260504042004 0 0 0.0 0.0 0.00 0.03 0.00 89 1008.5
20260504041503 0 0 0.0 0.0 0.00 0.03 0.00 89 1008.5
20260504041004 0 0 0.0 0.0 0.00 0.03 0.00 89 1008.5
20260504040504 0 0 0.0 0.0 0.00 0.03 0.00 89 1008.5
20260504040004 0 0 0.0 0.0 0.00 0.03 0.00 89 1008.5
20260504035504 0 0 0.0 0.0 0.00 0.03 0.03 89 1008.4
20260504035004 0 0 0.0 0.0 0.00 0.03 0.03 89 1008.4
20260504034504 0 239 0.0 1.6 0.00 0.03 0.03 89 1008.6
20260504034004 0 239 1.6 1.6 0.00 0.03 0.03 88 1008.5
20260504033504 0 239 1.6 3.2 0.00 0.03 0.03 89 1008.7
20260504033004 0 239 1.6 3.2 0.00 0.03 0.03 88 1008.3
20260504032504 1 239 1.6 3.2 0.00 0.03 0.03 88 1008.6
20260504032004 1 239 1.6 3.2 0.00 0.03 0.03 88 1008.5
20260504031504 1 239 1.6 3.2 0.00 0.03 0.03 88 1008.5
20260504031004 1 239 1.6 3.2 0.00 0.03 0.03 87 1008.2
20260504030504 1 239 1.6 3.2 0.00 0.03 0.03 87 1008.3
20260504030004 1 239 1.6 3.2 0.00 0.03 0.03 86 1008.3
20260504025504 1 239 1.6 3.2 0.00 0.03 0.03 85 1008.5
20260504025003 1 239 1.6 1.6 0.00 0.03 0.03 85 1008.3
20260504024503 1 239 1.6 1.6 0.00 0.03 0.03 84 1008.2
20260504024004 1 239 1.6 1.6 0.00 0.03 0.03 84 1008.6
20260504023503 1 239 1.6 1.6 0.00 0.03 0.03 84 1008.4
20260504023004 1 239 1.6 1.6 0.00 0.03 0.03 83 1008.4
20260504022504 1 239 1.6 3.2 0.00 0.03 0.03 83 1008.4
20260504022004 1 239 1.6 3.2 0.00 0.03 0.03 83 1008.6
20260504021504 1 239 1.6 1.6 0.00 0.03 0.03 83 1008.5
20260504021004 1 239 1.6 1.6 0.00 0.03 0.03 83 1008.4
20260504020504 1 239 1.6 1.6 0.00 0.03 0.03 83 1008.2
20260504020004 1 239 0.0 1.6 0.00 0.03 0.03 83 1008.3
20260504015525 1 239 1.6 1.6 0.00 0.03 0.03 82 1008.2
20260504015004 2 239 1.6 1.6 0.00 0.03 0.03 82 1008.2
20260504014504 2 239 1.6 1.6 0.00 0.03 0.03 82 1008.2
20260504014003 2 239 1.6 1.6 0.00 0.03 0.03 83 1008.2
20260504013504 2 239 1.6 1.6 0.00 0.03 0.03 82 1008.2
20260504013003 2 240 1.6 1.6 0.00 0.03 0.03 81 1008.3
20260504012504 2 240 1.6 1.6 0.00 0.03 0.03 81 1008.1
20260504012004 2 240 1.6 1.6 0.00 0.03 0.03 81 1008.1
20260504011525 2 240 1.6 1.6 0.00 0.03 0.03 82 1007.8
20260504011004 2 240 1.6 1.6 0.00 0.03 0.03 81 1008.1
20260504010504 3 240 1.6 1.6 0.00 0.03 0.03 80 1007.7
20260504010004 3 240 1.6 1.6 0.00 0.03 0.03 80 1007.7
20260504005504 3 240 1.6 1.6 0.00 0.03 0.03 79 1007.9
20260504005004 3 240 1.6 1.6 0.00 0.03 0.03 79 1007.6
20260504004504 3 240 1.6 1.6 0.00 0.03 0.03 77 1007.8
20260504004003 3 240 1.6 1.6 0.00 0.03 0.03 77 1007.6
20260504003525 4 240 1.6 1.6 0.00 0.03 0.03 75 1007.5
20260504003004 4 241 1.6 1.6 0.00 0.03 0.03 73 1007.8
20260504002504 5 243 1.6 1.6 0.00 0.03 0.03 71 1007.4
20260504002003 5 244 1.6 1.6 0.00 0.03 0.03 70 1007.5
20260504001504 6 244 1.6 1.6 0.00 0.03 0.03 68 1007.6
20260504001004 6 244 0.0 1.6 0.00 0.03 0.03 63 1007.3
20260504000525 7 245 0.0 1.6 0.00 0.03 0.03 60 1007.4
20260504000004 7 245 0.0 1.6 0.00 0.03 0.03 57 1007.5
20260503235504 8 245 0.0 3.2 0.00 0.03 0.03 58 1007.2
20260503235025 8 244 0.0 3.2 0.00 0.03 0.03 52 1007.3
20260503234504 8 250 1.6 3.2 0.00 0.03 0.03 51 1006.9
20260503234004 8 304 3.2 11.3 0.00 0.03 0.03 51 1006.9
20260503233525 8 311 3.2 12.9 0.00 0.03 0.03 49 1007.2
20260503233004 8 305 3.2 12.9 0.00 0.03 0.03 50 1007.0
20260503232504 8 310 3.2 11.3 0.00 0.03 0.03 50 1006.9
20260503232004 8 322 4.8 16.1 0.00 0.05 0.03 48 1007.0
20260503231504 8 320 4.8 16.1 0.00 0.05 0.03 49 1007.0
20260503231003 9 305 3.2 14.5 0.00 0.05 0.03 50 1006.9
20260503230504 9 295 3.2 14.5 0.00 0.05 0.03 46 1006.9
20260503230004 9 316 6.4 17.7 0.00 0.05 0.03 48 1006.6
20260503225504 9 326 8.0 17.7 0.00 0.05 0.03 46 1007.1
20260503225004 9 314 6.4 17.7 0.00 0.08 0.03 45 1006.7
20260503224504 9 309 6.4 22.5 0.00 0.08 0.03 47 1006.6
20260503224003 9 314 8.0 22.5 0.00 0.10 0.03 45 1006.7
20260503223525 9 326 6.4 16.1 0.00 0.10 0.03 45 1006.8
20260503223004 10 320 6.4 16.1 0.00 0.10 0.03 47 1006.6
20260503222503 9 318 6.4 24.1 0.00 0.10 0.03 46 1006.6
20260503222004 10 332 9.7 24.1 0.00 0.10 0.03 44 1006.6
20260503221504 10 328 8.0 24.1 0.00 0.10 0.03 46 1006.4
20260503221004 10 333 9.7 25.7 0.00 0.10 0.03 44 1006.6
20260503220504 10 335 9.7 25.7 0.00 0.10 0.03 44 1006.4
20260503220004 10 326 9.7 29.0 0.00 0.10 0.03 44 1006.5
20260503215504 10 323 9.7 29.0 0.00 0.10 0.03 43 1006.4
20260503215004 10 329 9.7 29.0 0.00 0.10 0.03 45 1006.3
20260503214504 10 325 11.3 29.0 0.00 0.10 0.03 44 1006.3
20260503214004 10 306 8.0 29.0 0.00 0.10 0.03 42 1006.2
20260503213504 10 323 9.7 22.5 0.00 0.13 0.03 43 1006.2
20260503213004 10 338 9.7 33.8 0.00 0.18 0.03 43 1006.0
20260503212504 10 331 9.7 33.8 0.00 0.23 0.03 42 1005.9
20260503212004 10 328 11.3 25.7 0.00 0.25 0.03 43 1006.0
20260503211504 10 335 11.3 25.7 0.00 0.28 0.03 43 1006.2
20260503211005 10 343 8.0 17.7 0.00 0.28 0.03 43 1005.9
20260503210025 10 327 8.0 29.0 0.00 0.36 0.03 43 1006.1
20260503205503 10 327 11.3 29.0 0.00 0.38 0.03 44 1005.7
20260503205003 10 328 12.9 29.0 0.00 0.38 0.03 43 1005.9
20260503204524 10 328 11.3 27.4 0.00 0.38 0.03 43 1005.7
20260503204003 10 323 11.3 29.0 0.00 0.41 0.03 42 1005.5
20260503203503 10 319 8.0 29.0 0.00 0.41 0.03 44 1005.6
20260503203003 10 309 6.4 25.7 0.00 0.43 0.03 43 1005.7